Home   Weather   Rhodes   Past weeks

Flag for Greece Past Weather in Rhodes, Rhodes, Greece — Yesterday and Last 2 Weeks

Now
59 °F

Scattered clouds.


Feels Like: 60 °F
Forecast: 58 / 62 °F
Wind: 3 mph from Southeast

Location: Rhodes Airport

Current Time: Dec 4, 2016 at 8:11:18 am

Latest Report: Dec 4, 2016 at 7:20 am


Visibility: N/A

Pressure: 30.21 "Hg

Humidity: 82%

Dew Point: 54 °F

Location of RhodesLocation

Past Weather in Rhodes — Graph

°F

Rhodes Temperature Yesterday

Maximum temperature yesterday: 66 °F (at 11:50 am)
Minimum temperature yesterday: 54 °F (at 4:50 am)
Average temperature yesterday: 59 °F

High & Low Weather Summary for the Past Weeks

 TemperatureHumidityPressure
High72 °F (Nov 21, 2:20 pm)94% (Nov 19, 7:50 am)30.21 "Hg (Nov 19, 7:50 am)
Low46 °F (Dec 2, 6:50 am)41% (Dec 2, 10:50 am)29.71 "Hg (Nov 29, 2:20 pm)
Average60 °F73%30.02 "Hg
* Reported Nov 19 6:20 am — Dec 4 6:50 am, Rhodes, Weather by CustomWeather, © 2016

Note: Actual official high and low records may vary slightly from our data, if they occured in-between our weather recording intervals... More about our weather records

Advertising

Rhodes Weather History for the Previous 24 Hours

Scroll right to see more
 ConditionsComfort  
Time TempWeatherWind HumidityBarometerVisibility
6:50 am
Sun, Dec 4
59 °FPassing clouds.3 mph82%30.21 "HgN/A
6:20 am57 °FPassing clouds.No wind82%30.21 "HgN/A
5:50 am57 °FPassing clouds.3 mph82%30.21 "HgN/A
5:20 am57 °FPassing clouds.3 mph82%30.21 "HgN/A
4:50 am57 °FPassing clouds.6 mph82%30.21 "HgN/A
4:20 am57 °FPassing clouds.3 mph82%30.21 "HgN/A
3:50 am57 °FPassing clouds.3 mph82%30.21 "HgN/A
3:20 am57 °FPassing clouds.5 mph82%30.18 "HgN/A
2:50 am57 °FPassing clouds.No wind82%30.21 "HgN/A
2:20 am57 °FPassing clouds.No wind82%30.18 "HgN/A
1:50 am57 °FPassing clouds.No wind77%30.18 "HgN/A
1:20 am57 °FPassing clouds.No wind82%30.18 "HgN/A
12:50 am57 °FPassing clouds.No wind82%30.18 "HgN/A
12:20 am57 °FPassing clouds.No wind82%30.18 "HgN/A
11:50 pm
Sat, Dec 3
57 °FPassing clouds.No wind82%30.18 "HgN/A
11:20 pm57 °FPassing clouds.No wind82%30.18 "HgN/A
10:50 pm57 °FPassing clouds.No wind82%30.18 "HgN/A
10:20 pm57 °FPassing clouds.3 mph82%30.18 "HgN/A
9:50 pm57 °FPassing clouds.3 mph82%30.18 "HgN/A
9:20 pm57 °FPassing clouds.3 mph88%30.18 "HgN/A
8:50 pm57 °FPassing clouds.2 mph88%30.18 "HgN/A
8:20 pm57 °FPassing clouds.3 mph88%30.15 "HgN/A
7:50 pm57 °FPassing clouds.3 mph88%30.15 "HgN/A
7:20 pm57 °FPassing clouds.2 mph94%30.15 "HgN/A
6:50 pm57 °FPassing clouds.2 mph94%30.15 "HgN/A
6:20 pm59 °FPassing clouds.3 mph88%30.15 "HgN/A
5:50 pm59 °FPassing clouds.3 mph88%30.15 "HgN/A
5:20 pm61 °FPassing clouds.1 mph83%30.12 "HgN/A
4:50 pm61 °FLight rain. Partly sunny.2 mph83%30.12 "Hg6 mi
4:20 pm63 °FLight rain. Partly sunny.3 mph77%30.12 "HgN/A
3:50 pm63 °FPartly sunny.7 mph77%30.12 "HgN/A
3:20 pm64 °FPartly sunny.3 mph49%30.12 "HgN/A
2:50 pm64 °FPartly sunny.1 mph68%30.12 "HgN/A
2:20 pm63 °FLight rain. Partly sunny.5 mph73%30.12 "HgN/A
1:50 pm64 °FScattered clouds.6 mph68%30.12 "HgN/A
1:20 pm66 °FScattered clouds.6 mph64%30.12 "HgN/A
12:50 pm66 °FScattered clouds.5 mph64%30.12 "HgN/A
12:20 pm66 °FPassing clouds.9 mph60%30.12 "HgN/A
11:50 am66 °FPassing clouds.5 mph60%30.12 "HgN/A
11:20 am64 °FPassing clouds.5 mph64%30.15 "HgN/A
10:50 am64 °FPassing clouds.5 mph64%30.15 "HgN/A
10:20 am63 °FPassing clouds.5 mph64%30.15 "HgN/A
9:50 am61 °FPassing clouds.5 mph68%30.15 "HgN/A
9:20 am59 °FScattered clouds.3 mph72%30.12 "HgN/A
8:50 am59 °FScattered clouds.3 mph72%30.12 "HgN/A
8:20 am57 °FScattered clouds.5 mph77%30.09 "HgN/A
Weather by CustomWeather, © 2016

See weather overviewHow to use our weather pages